Terminal Aerodrome Forecast
Issued by NWS

Home | Current Version | Previous Version | Graphics & Text | Print | Product List | Glossary Off
Versions: 1 2 3 4 5 6 7 8 9 10 11 12 13 14 15 16 17 18 19 20 21 22 23 24 25 26 27 28 29 30 31 32 33 34 35 36

000
FTUS43 KDDC 300137 AAB
TAFHYS
TAF AMD
KHYS 300137Z 3002/3024 35019G26KT P6SM VCTS SCT060CB
     FM300300 01014G23KT P6SM SCT120
     FM300500 01013G20KT P6SM OVC018
     FM301300 02009KT P6SM SCT120=

USA.gov is the U.S. government's official web portal to all federal, state and local government web resources and services.